Regional Weather Roundup
Issued by NWS

Home | Current Version | Previous Version | Graphics & Text | Print | Product List | Glossary On
Versions: 1 2 3 4 5 6 7 8 9 10 11 12 13 14 15 16 17 18 19 20 21 22 23 24 25 26 27 28 29 30 31 32 33 34 35 36 37 38 39 40 41 42 43 44 45 46 47 48 49 50
000
ASUS43 KLSX 180159
RWRMO

WEATHER SUMMARY FOR MISSOURI
NATIONAL WEATHER SERVICE SPRINGFIELD MO
900 PM CDT FRI APR 17 2015

NOTE: "FAIR" INDICATES FEW OR NO CLOUDS BELOW 12,000 FEET WITH NO
       SIGNIFICANT WEATHER AND/OR OBSTRUCTIONS TO VISIBILITY.
       CURRENT SKY AND/OR WEATHER CONDITIONS ARE NOT AVAILABLE FOR
       CHILLICOTHE AND FARMINGTON.

MOZ001>031-035>038-043-044-053-054-180300-
...NORTHERN AND WESTERN MISSOURI...

CITY           SKY/WX    TMP DP  RH WIND       PRES   REMARKS
KANSAS CTY INT CLOUDY    64  60  87 N6        29.97R
KANSAS C DTWN  CLOUDY    71  59  65 NW3       29.96R
LEE`S SUMMIT   CLOUDY    72  56  57 NW3       29.97S
ST JOSEPH      CLOUDY    68  58  70 SE9       29.99R
CHILLICOTHE      N/A     69  60  73 CALM      29.99R
KIRKSVILLE     MOCLDY    67  56  67 S3        30.01R

$$
MOZ066>068-077>081-088>096-101>105-180300-
...SOUTHWEST MISSOURI...

CITY           SKY/WX    TMP DP  RH WIND       PRES   REMARKS
SPRINGFIELD    PTCLDY    68  57  68 S7        29.97R
JOPLIN         CLOUDY    68  62  81 SE3       29.96R

$$
MOZ032>034-039>042-045>050-055>058-069>072-180300-
...CENTRAL MISSOURI...

CITY           SKY/WX    TMP DP  RH WIND       PRES   REMARKS
COLUMBIA       MOCLDY    71  55  56 NE6       29.99R
JEFFERSON CITY CLOUDY    75  55  49 NE9       29.96R
ROLLA          CLOUDY    69  55  60 SE6       29.96F
SEDALIA        PTCLDY    71  55  56 E6        29.97S
OSAGE BEACH    MOCLDY    72  52  49 NE5       29.96S

$$
MOZ051-052-059>065-180300-
...EAST CENTRAL MISSOURI...

CITY           SKY/WX    TMP DP  RH WIND       PRES   REMARKS
ST LOUIS INTL  PTCLDY    70  55  59 E7        30.01R
SPIRIT OF STL  CLEAR     67  56  67 CALM      29.99R
ST CHARLES     CLEAR     66  54  65 E7        30.00R

$$
MOZ072>076-082>087-097>100-106>115-180300-
...SOUTH CENTRAL AND SOUTHEAST MISSOURI...

CITY           SKY/WX    TMP DP  RH WIND       PRES   REMARKS
CAPE GIRARDEAU CLEAR     64  62  93 SW5       30.01R
FARMINGTON     PTCLDY    66  57  72 SE6       30.05R
POPLAR BLUFF   CLEAR     66  61  84 CALM      30.00S
WEST PLAINS    CLEAR     67  60  78 S3        30.01R

$$


USA.gov is the U.S. government's official web portal to all federal, state and local government web resources and services.